User: anonymous   Login
Location: Ottawa
(45.4167°N, 75.7000°W)
Time: 13:28:16
(UTC-05:00)
Language:

N. Korean satellite - Orbit

View from above orbital plane
View from above orbital plane
View from above satellite
View from above satellite

Ground track
Ground track

The orbit data is extracted from the following two-line orbital elements,

1 39026U 12072A   18048.92208931 +.00001693 +00000-0 +66398-4 0  9992
2 39026 097.2145 063.3501 0040467 028.6136 331.7311 15.26367407287406
Epoch (UTC): 17 February 2018 22:07:48
Eccentricity: 0.0040467
inclination: 97.2145°
perigee height: 459 km
apogee height: 514 km
right ascension of ascending node: 63.3501°
argument of perigee: 28.6136°
revolutions per day: 15.26367407
mean anomaly at epoch: 331.7311°
orbit number at epoch: 28740

The dashed part of the orbit path shows where the satellite is in the earth's shadow,  

DLR